[Iaude] MPEC B77: 2024 AL6 [a=2.47,e=0.83,i=3.7,H=25.6]
    mpec at marsden.cfa.harvard.edu 
    mpec at marsden.cfa.harvard.edu
       
    Sat Jan 20 21:28:38 EST 2024
    
    
  
M.P.E.C. 2024-B77                              Issued 2024 January 21, 02:26 UT
     The Minor Planet Electronic Circulars contain information on unusual
         minor planets, routine data on comets and natural satellites,
         and occasional editorial announcements.  They are published
    on behalf of Division F of the International Astronomical Union by the
          Minor Planet Center, Smithsonian Astrophysical Observatory,
                          Cambridge, MA 02138, U.S.A.
			  
             Prepared using the Tamkin Foundation Computer Network
                              MPC at CFA.HARVARD.EDU
            URL https://www.minorplanetcenter.net/    ISSN 1523-6714
                                    2024 AL6                                    
Observations:
     K24A06L* C2024 01 10.73582 08 34 07.08 +17 14 06.2          22.7 wVEB077O18
     K24A06L  C2024 01 10.74449 08 34 06.58 +17 14 11.9          23.2 wVEB077O18
     K24A06L  C2024 01 10.75323 08 34 06.09 +17 14 17.7          22.6 wVEB077O18
     K24A06L  C2024 01 19.56154108 11 17.192+22 09 18.81         20.01wXEB077F52
     K24A06L  C2024 01 19.57405208 11 10.699+22 10 29.16         20.03wXEB077F52
     K24A06L  C2024 01 19.58655708 11 04.230+22 11 39.49         20.13wXEB077F52
     K24A06L 1C2024 01 19.86103 08 08 53.34 +22 39 04.7          20.5 VXEB077033
     K24A06L 1C2024 01 19.86143 08 08 53.11 +22 39 07.5          20.3 VXEB077033
     K24A06L 1C2024 01 19.86183 08 08 52.87 +22 39 10.6          20.5 VXEB077033
     K24A06L 1C2024 01 19.86250 08 08 52.52 +22 39 14.9          20.6 VXEB077033
     K24A06L KB2024 01 19.90872908 08 26.90 +22 44 35.5          19.5 GXEB077I93
     K24A06L KB2024 01 19.91121608 08 25.44 +22 44 52.9          19.7 GXEB077I93
     K24A06L KB2024 01 19.91369608 08 23.98 +22 45 09.6          20.4 GXEB077I93
     K24A06L 1C2024 01 19.95612 08 07 56.70 +22 49 50.6          20.3 VXEB077033
     K24A06L 1C2024 01 19.95658 08 07 56.42 +22 49 53.7          20.2 VXEB077033
     K24A06L 1C2024 01 19.95704 08 07 56.15 +22 49 56.8          20.3 VXEB077033
     K24A06L 1C2024 01 19.95767 08 07 55.74 +22 50 01.3          20.3 VXEB077033
     K24A06L hC2024 01 19.99088008 07 34.85 +22 54 02.1          19.1 GVEB077L01
     K24A06L hC2024 01 19.99236508 07 33.90 +22 54 12.8          19.8 GVEB077L01
     K24A06L hC2024 01 19.99533408 07 32.04 +22 54 33.7          19.5 GVEB077L01
     K24A06L IC2024 01 19.99681508 07 31.17 +22 54 43.9          19.5 GVEB077L01
     K24A06L KB2024 01 20.08529 08 06 34.93 +23 05 05.7                VEB077204
     K24A06L KB2024 01 20.09419 08 06 29.16 +23 06 09.2                VEB077204
     K24A06L KB2024 01 20.10237 08 06 23.81 +23 07 07.7          19.9 GVEB077204
     K24A06L KC2024 01 20.16850008 05 50.88 +23 15 38.6          19.7 GVEB077H21
     K24A06L KC2024 01 20.17129908 05 48.97 +23 16 00.4          19.7 GVEB077H21
     K24A06L KC2024 01 20.17409808 05 47.08 +23 16 22.0                VEB077H21
     K24A06L KB2024 01 20.17638 08 05 46.447+23 16 38.28         19.7 GXEB077H36
     K24A06L KC2024 01 20.17689708 05 45.14 +23 16 43.5                VEB077H21
     K24A06L KB2024 01 20.18434 08 05 40.975+23 17 40.13         19.3 GXEB077H36
     K24A06L KB2024 01 20.19213 08 05 35.618+23 18 40.39         19.3 GXEB077H36
     K24A06L 1C2024 01 20.79396 07 57 55.08 +24 47 01.3          21.4 VXEB077033
     K24A06L 1C2024 01 20.79419 07 57 54.92 +24 47 05.0          20.5 VXEB077033
     K24A06L 1C2024 01 20.79442 07 57 54.68 +24 47 07.3          21.0 VXEB077033
     K24A06L 1C2024 01 20.79604 07 57 53.12 +24 47 24.1          20.7 VXEB077033
     K24A06L KB2024 01 20.81711 07 57 33.71 +24 51 20.6                ZEB077106
     K24A06L KC2024 01 20.82055207 57 30.91 +24 51 54.6          18.7 GVEB077203
     K24A06L KB2024 01 20.82425 07 57 26.88 +24 52 37.2                ZEB077106
     K24A06L KB2024 01 20.83128 07 57 20.03 +24 53 53.0                ZEB077106
     K24A06L IC2024 01 20.83223207 57 19.19 +24 54 02.4          19.4 GXEB077595
     K24A06L KC2024 01 20.83618807 57 15.81 +24 54 43.1                VEB077203
     K24A06L KB2024 01 20.83831 07 57 13.16 +24 55 08.8                ZEB077106
     K24A06L KC2024 01 20.84433307 57 07.35 +24 56 13.5          19.3 GXEB077595
     K24A06L KC2024 01 20.84739607 57 04.86 +24 56 44.0          19.4 GVEB077587
     K24A06L KC2024 01 20.84895707 57 03.33 +24 57 00.8          19.3 GVEB077587
     K24A06L KC2024 01 20.85020607 57 02.09 +24 57 14.6          19.4 GVEB077587
     K24A06L KC2024 01 20.85024607 57 02.11 +24 57 15.6          18.8 GVEB077203
     K24A06L KC2024 01 20.85642607 56 55.43 +24 58 24.8          19.3 GXEB077595
     K24A06L KB2024 01 20.90905 07 56 00.27 +25 08 05.7          19.2 GXEB077M45
     K24A06L KB2024 01 20.91332 07 55 55.86 +25 08 52.6          19.6 GXEB077M45
     K24A06L KC2024 01 20.93381607 55 36.54 +25 12 39.0          19.1 GVEB077K51
     K24A06L KC2024 01 20.94951007 55 19.96 +25 15 35.4          19.1 GVEB077K51
     K24A06L KC2024 01 20.95383907 55 15.34 +25 16 24.1          19.3 GVEB077K51
     K24A06L KC2024 01 20.95817107 55 10.69 +25 17 13.1          19.1 GVEB077K51
Observer details:
033 Karl Schwarzschild Observatory, Tautenburg.  Observers S. Melnikov, C.
    Hogner, F. Ludwig, M. Hartmann, B. Stecklum.  Measurer B. Stecklum.
    1.34-m f/3 Schmidt + CCD.
106 Crni Vrh.  Observer J. Vales.  0.60-m f/3.3 reflector + CMO.
203 GiaGa Observatory.  Observer G. Galli.  0.36-m f/5.76 Schmidt-Cassegrain +
    CCD.
204 Schiaparelli Observatory.  Observers L. Buzzi, G. Galli.  0.84-m f/3.5
    reflector + CMO.
587 Sormano.  Observers A. Fumagalli, G. Ventre.  Measurer P. Sicoli.  0.5-m
    f/6.8 reflector + CCD.
595 Farra d'Isonzo.  Observers G. D'Agostino, N. Moretta, G. Panterotto, E.
    Pettarin.  Measurer E. Pettarin.  0.61-m f/4.5 reflector + CCD.
F52 Pan-STARRS 2, Haleakala.  Observers J. Herman, T. Lowe, P. Minguez, A.
    Schultz, I. Smith.  Measurers K. Chambers, T. de Boer, J. Fairlamb, H.
    Gao, M. Huber, C.-C. Lin, E. Magnier, Y. Ramanjooloo, R. Wainscoat, R.
    Weryk.  1.8-m Ritchey-Chretien + CCD.
H21 Astronomical Research Observatory, Westfield.  Observer R. Holmes.
    Measurers T. Linder, R. Holmes, L. Horn.  0.76-m f/3.0 astrograph + CCD.
H36 Sandlot Observatory, Scranton.  Observer G. Hug.  0.56-m f/4.8 reflector +
    CMO.
I93 St Pardon de Conques.  Observer F. Losse.  0.40-m f/3.7 reflector + CMO.
K51 Osservatorio del Celado, Castello Tesino.  Observer M. Campestrin.  0.80-m
    f/4 reflector + CCD.
L01 Visnjan Observatory, Tican.  Observer K. Korlevic.  1.0-m f/2.9 reflector
    + CCD.
M45 Starhopper Observatory, Sfantu Gheorghe.  Observer F. Ursache.  0.41-m
    f/7.5 reflector + CMO.
O18 WFST, Lenghu.  Observers Z. Q. Li, S. X. Li, Q. Y. Hai.  Measurers B. Li,
    H. B. Zhao, Z. J. Xu, G. T. Zhaori.  2.5-m f/2.48 reflector + CCD.
Orbital elements:
2024 AL6                                                 Earth MOID = 0.0067 AU
Epoch 2023 Sept. 13.0 TT = JDT 2460200.5                Veres                   
M 315.40614              (2000.0)            P               Q                  
n   0.25361897     Peri.  110.20284     -0.68277612     +0.72830713             
a   2.4718089      Node   116.59657     -0.69228339     -0.61942842             
e   0.8260508      Incl.    3.73092     -0.23358186     -0.29304804             
P   3.89           H   25.64          G   0.15           U   8                  
Residuals in seconds of arc
240110 O18  0.2+  0.3+    240119 L01  0.3-  0.1-    240120 203  0.3-  0.3-
240110 O18  0.1+  0.1+    240119 L01  0.2-  0.1+    240120 106  0.3+  0.2+
240110 O18  0.2+  0.1+    240119 L01  0.7+  0.0     240120 106  0.4-  0.4+
240119 F52  0.1+  0.1+    240120 204  0.4-  0.0     240120 595  0.0   0.2-
240119 F52  0.1-  0.1+    240120 204  0.0   0.0     240120 203  0.5-  0.2-
240119 F52  0.0   0.1+    240120 204  0.2-  0.0     240120 106  0.8-  0.4+
240119 033  0.1-  0.1-    240120 H21  0.2-  0.3-    240120 595  0.4-  0.2+
240119 033  0.1-  0.0     240120 H21  0.1-  0.0     240120 587  0.2+  0.0
240119 033  0.2-  0.4+    240120 H21  0.3+  0.0     240120 587  0.2+  0.2-
240119 033  0.3+  0.2+    240120 H36  0.1-  0.2+    240120 587  0.0   0.1+
240119 I93  0.4-  0.4-    240120 H21  0.0   0.1-    240120 595  0.3-  0.3+
240119 I93  0.0   0.0     240120 H36  0.2-  0.3+    240120 M45  0.2-  0.2+
240119 I93  0.3+  0.3-    240120 H36  0.0   0.1+    240120 M45  0.2+  0.1-
240119 033  0.1+  0.0     240120 033  0.7-  0.1-    240120 K51  0.2-  0.2+
240119 033  0.1+  0.0     240120 033  0.0   1.2+    240120 K51  0.2+  0.0
240119 033  0.3+  0.1-    240120 033  0.3-  1.1+    240120 K51  0.1+  0.1-
240119 033  0.0   0.1+    240120 033  1.0-  0.8+    240120 K51  0.1-  0.1-
240119 L01  0.1-  0.6-    240120 106  0.2-  0.1+
Ephemeris:
2024 AL6                 a,e,i = 2.47, 0.83, 4                   q = 0.4300
Date    TT    R. A. (2000) Decl.     Delta      r    Elong.  Phase     V
2023 12 22    08 33 59.1 +16 18 09   0.5527  1.4625   142.7    24.0    26.3
...
2024 01 06    08 36 10.7 +16 38 50   0.2894  1.2558   157.6    17.4    24.4
...
2024 01 14    08 30 42.1 +18 02 39   0.1589  1.1391   167.4    10.9    22.6
...
2024 01 20    08 07 30.8 +22 55 52   0.06484 1.0487   177.3     2.5    20.1
2024 01 21    07 54 28.1 +25 26 04   0.04967 1.0334   173.7     6.0    19.7
2024 01 22    07 28 45.2 +29 52 22   0.03495 1.0180   165.8    13.7    19.2
...
2024 01 28    21 22 57.2 -05 37 07   0.06317 0.9244    16.8   162.0    31.2
...
2024 02 05    20 58 24.5 -11 48 05   0.1899  0.7970     5.4   173.3
...
2024 02 20    20 57 04.6 -13 44 06   0.4659  0.5642    18.0   147.2    30.7
M. P. C. Staff               (C) Copyright 2024 MPC           M.P.E.C. 2024-B77
    
    
More information about the Iaude
mailing list